Theta_e
304 304 304 304 304 304 304 303 303 303 303 303 303 302 302 303 303 303 305 306 307 307 307 306 305 304 303 303 302 301 299 298 297 297 296 295 295 294 293 293 292 292
302 302 302 303 303 302 303 304 303 303 303 302 302 303 303 303 303 303 304 305 306 306 306 306 305 304 304 303 302 301 300 298 297 296 295 294 294 294 293 293 293 292
301 301 301 302 302 302 302 302 303 303 303 302 302 302 302 302 303 303 303 304 305 306 306 306 305 304 304 303 302 300 299 298 297 297 295 294 294 294 293 293 293 292
300 300 301 301 302 302 302 301 301 302 302 301 301 301 302 302 302 302 302 301 304 304 305 306 305 304 303 302 301 300 300 299 299 298 296 295 294 294 294 293 292 292
299 299 300 300 301 301 301 301 301 301 301 301 301 301 300 301 301 301 300 300 301 302 303 304 304 304 303 302 301 300 300 299 298 297 296 295 295 294 293 293 292 291
298 299 299 299 299 300 300 300 300 300 300 300 301 300 300 300 300 299 299 299 299 300 300 302 303 303 302 301 301 300 299 297 296 295 295 295 295 294 294 293 292 291
298 297 297 298 298 298 299 300 300 299 300 300 299 298 298 298 298 298 299 299 299 298 299 299 300 300 300 300 299 298 298 297 296 295 294 295 294 294 293 293 292 291
297 297 297 297 297 298 298 298 298 298 298 297 298 298 297 298 297 298 298 298 298 298 298 298 299 300 298 297 297 296 296 297 296 295 294 294 294 294 294 293 292 291
295 294 294 294 295 296 296 296 296 296 296 297 297 297 296 297 297 297 297 296 296 296 297 296 297 296 296 296 296 296 296 296 296 295 294 294 294 294 294 293 292 291
293 293 292 293 293 294 294 295 295 295 294 295 296 295 295 294 295 296 295 295 295 295 295 295 295 295 295 295 295 295 296 296 295 295 295 294 294 294 294 293 292 291
291 291 291 292 292 293 293 293 292 293 293 293 294 293 294 294 293 294 294 294 294 295 295 294 294 295 295 295 294 294 295 295 296 295 295 295 294 294 292 294 293 292
290 290 291 291 292 291 291 291 291 291 292 292 292 294 293 292 293 293 293 294 294 295 295 295 295 295 295 295 295 294 294 294 295 295 295 295 295 295 294 294 294 293
290 290 291 291 290 291 290 290 290 291 291 291 291 291 292 292 292 292 293 293 294 294 294 294 294 294 294 295 295 295 294 294 293 294 294 294 294 294 294 294 294 294
290 290 290 290 290 290 290 290 290 290 290 291 290 290 291 291 292 292 293 292 292 292 293 293 293 293 294 294 294 295 295 294 294 294 293 293 294 294 294 294 294 294
289 289 289 289 289 289 289 289 289 289 289 289 289 290 290 291 291 291 291 291 291 291 292 292 292 293 294 294 294 294 294 294 294 294 294 294 294 294 294 294 294 294
289 289 289 288 288 288 289 288 288 288 288 288 289 289 290 290 290 290 290 291 291 291 291 291 291 292 290 291 292 293 294 294 294 294 293 293 293 293 293 293 293 294
288 288 288 288 288 288 288 287 288 288 288 288 288 288 288 289 289 289 289 290 290 291 291 291 291 291 290 292 293 293 293 293 293 293 293 293 293 292 292 293 293 293
288 287 287 287 286 287 287 287 287 287 287 287 287 287 288 288 288 288 289 289 290 290 290 290 291 290 291 292 292 293 292 292 292 292 292 293 293 293 293 293 293 293
286 286 286 286 286 286 287 286 286 286 286 286 287 288 287 287 288 288 288 289 289 289 289 290 290 291 292 292 292 293 293 292 292 292 291 291 292 292 293 293 293 292
285 285 286 286 285 285 285 285 285 286 286 287 286 286 286 287 287 287 288 288 288 288 289 289 290 290 291 292 292 292 293 293 292 292 291 291 291 292 292 292 292 291
285 285 285 285 285 284 284 284 285 285 285 285 286 286 286 286 287 286 287 287 288 288 288 288 289 290 291 291 292 292 293 293 292 291 291 291 291 291 291 291 291 291
284 285 285 284 284 283 283 285 284 285 285 286 285 286 286 286 286 286 286 286 287 287 287 287 289 290 290 291 291 292 293 291 290 289 289 290 290 290 290 290 290 290
284 284 284 283 283 282 283 284 284 284 285 283 284 286 286 286 286 286 286 286 286 286 286 287 288 289 290 290 291 292 291 289 288 288 288 288 289 289 289 289 289 289
284 283 283 283 281 282 284 284 284 283 284 283 285 286 286 286 286 286 286 286 286 286 286 286 287 287 289 290 290 291 290 288 288 288 287 287 288 288 288 288 289 287
283 282 282 282 282 283 283 284 285 285 285 282 284 284 285 286 285 285 285 285 285 285 285 286 286 287 288 289 290 290 290 288 288 288 287 287 287 287 287 288 288 287
281 280 280 280 282 283 282 283 283 283 283 283 283 283 284 284 284 284 284 285 285 285 285 285 285 286 286 288 289 290 290 289 288 287 287 286 287 287 286 286 286 286
Wind_Speed
7 7 7 7 8 7 7 8 7 8 7 7 7 7 7 7 7 7 8 7 8 9 7 7 8 9 9 10 10 10 10 12 12 10 12 12 12 13 12 13 13 12
8 7 6 6 6 6 6 7 8 9 8 8 7 6 5 6 7 8 8 8 7 8 8 8 8 9 9 9 10 10 10 9 11 8 10 13 12 12 14 14 14 13
6 7 8 10 9 9 9 8 8 7 7 7 6 5 6 6 7 7 7 7 6 8 8 8 8 8 9 10 10 10 11 11 11 10 10 13 12 12 13 13 12 13
8 9 9 9 8 8 7 7 7 6 6 6 7 6 6 6 6 7 7 8 8 8 8 8 9 8 8 9 9 9 11 11 11 10 11 10 11 11 12 11 11 11
9 8 8 8 7 7 6 8 8 7 7 7 5 6 6 6 7 7 7 7 7 8 7 8 8 8 8 9 9 10 10 10 9 9 10 11 11 11 11 10 11 13
8 8 8 7 7 7 7 7 7 7 7 7 8 6 7 7 7 8 8 8 8 8 8 8 8 7 8 8 9 10 9 9 8 9 10 12 11 10 9 10 11 12
9 8 9 8 9 9 10 10 8 7 7 7 6 8 8 8 8 9 9 9 9 9 9 8 8 8 7 7 8 9 9 9 9 10 11 11 10 11 11 10 11 12
9 7 6 6 8 8 9 8 7 7 8 7 9 8 8 9 9 8 8 9 9 9 9 8 8 8 7 7 8 8 9 8 9 10 11 11 10 12 11 10 11 13
7 7 6 7 8 8 9 9 8 8 7 8 8 7 7 8 8 9 9 9 9 9 8 8 9 8 7 8 9 9 9 9 9 10 11 11 12 13 12 11 11 12
7 6 7 8 9 9 10 8 7 7 7 8 8 6 7 7 8 8 8 9 9 9 8 9 8 8 9 8 9 9 9 10 9 10 10 11 12 12 12 11 12 12
6 6 7 8 9 8 8 7 7 7 6 8 7 7 8 7 7 7 8 8 9 10 9 9 9 9 10 10 9 8 9 9 10 10 10 11 11 11 11 11 11 13
5 6 8 9 8 8 8 8 7 7 7 7 7 8 7 7 8 8 9 10 10 10 9 9 9 10 10 10 10 9 9 9 9 10 10 10 10 10 11 11 11 12
7 8 7 7 8 8 7 7 7 7 7 8 7 7 7 8 8 9 8 8 9 8 9 9 9 9 9 9 9 9 9 9 10 10 10 9 9 10 10 10 11 11
7 6 7 7 7 7 7 7 6 6 7 6 5 7 8 8 9 9 8 7 8 8 9 8 9 9 9 9 9 9 9 10 10 10 10 10 10 10 10 11 11 12
6 5 5 6 7 6 6 6 6 6 5 6 6 7 7 8 7 7 7 8 8 8 9 8 9 10 9 9 9 10 10 10 11 11 11 11 11 11 11 11 11 11
5 5 6 6 6 6 6 5 5 5 6 6 7 7 7 7 7 7 7 9 9 9 9 8 9 8 10 14 13 11 10 9 9 10 10 11 11 11 11 11 12 11
5 6 5 6 6 5 5 5 5 5 5 6 6 7 7 7 7 8 8 8 9 9 9 9 8 9 14 15 17 17 12 10 10 10 10 11 11 11 12 11 11 11
5 5 5 5 4 5 5 4 4 4 5 6 6 7 7 6 7 8 8 8 8 8 9 9 9 11 14 15 17 17 15 11 10 10 10 10 11 11 11 11 12 11
3 3 3 4 4 4 4 4 4 5 6 5 8 7 6 7 8 7 9 8 8 9 10 10 10 11 13 16 16 17 17 15 10 11 11 11 11 12 12 12 11 10
2 1 4 4 3 4 4 4 3 6 5 6 5 5 6 7 7 8 8 8 8 9 9 9 10 10 13 15 15 16 16 14 11 12 12 12 13 12 12 12 11 11
3 3 4 5 4 2 3 4 4 5 5 4 4 5 5 6 6 6 8 6 8 8 8 10 10 11 12 14 15 16 16 14 11 10 10 12 12 13 13 12 12 11
3 3 4 4 4 3 3 5 4 5 5 4 4 4 4 5 5 6 8 8 7 6 8 10 11 11 13 14 15 15 16 10 9 9 10 12 13 13 12 11 11 12
3 3 4 3 3 3 4 5 5 5 4 3 4 5 5 6 6 6 6 7 7 6 8 10 10 10 12 14 14 16 12 8 8 9 10 11 13 11 11 11 10 11
4 3 3 3 3 4 5 5 4 3 4 3 4 6 6 6 6 6 6 6 7 8 8 9 10 9 11 12 14 15 13 9 8 9 11 11 11 9 9 9 11 14
4 2 3 3 4 5 4 6 6 5 5 3 4 5 7 6 6 7 7 6 6 8 9 10 11 9 10 12 13 14 12 8 8 8 10 11 9 10 8 10 10 10
2 2 3 3 4 5 5 5 5 5 5 5 5 4 6 6 6 6 8 8 5 7 7 8 9 9 6 11 13 14 15 10 7 9 12 11 9 10 10 8 7 7
Wind_Direction
208 199 205 201 211 209 202 197 200 206 207 203 203 204 203 204 196 200 205 210 214 217 211 209 202 203 203 202 202 205 208 211 213 209 212 214 218 216 217 214 210 213
215 207 211 213 220 210 216 208 207 206 210 205 210 203 205 196 204 197 203 208 204 214 210 208 204 203 201 201 202 206 211 211 215 203 209 212 217 215 221 219 217 218
223 217 215 215 215 213 212 214 215 215 213 212 203 204 205 201 203 202 206 208 204 213 214 209 207 206 204 204 203 207 211 209 214 204 208 215 216 215 221 220 222 216
217 219 223 226 223 222 215 218 221 224 220 216 207 207 205 203 204 205 213 215 214 211 211 212 211 205 205 206 206 213 214 215 215 205 211 219 219 218 221 217 220 219
210 216 224 231 233 232 225 225 227 224 224 225 214 208 210 207 209 215 215 221 223 222 213 215 213 211 203 208 207 216 214 217 214 207 212 219 220 215 222 216 218 221
214 212 212 218 221 225 234 234 232 221 219 222 222 203 210 213 216 215 215 221 222 220 219 217 216 215 208 209 212 219 215 215 213 206 214 220 223 216 220 218 218 222
220 212 214 207 211 209 220 225 220 215 214 217 206 217 204 214 214 215 217 221 222 221 218 216 215 218 213 214 218 221 220 217 213 210 215 224 221 224 220 218 221 224
221 218 214 218 224 225 227 228 220 217 214 207 217 222 204 216 217 216 217 221 224 223 220 221 217 218 213 215 224 224 224 218 218 213 218 224 219 227 221 218 220 225
215 209 206 218 224 230 230 224 220 220 206 216 224 223 215 216 219 217 219 221 226 228 223 222 218 220 216 215 224 226 226 225 219 216 219 221 222 226 223 218 220 224
214 207 208 219 225 229 233 232 226 224 210 222 227 220 220 223 218 220 220 222 228 229 225 226 223 220 221 221 223 223 228 231 226 224 225 226 226 228 225 220 221 224
217 205 218 225 231 233 239 235 229 224 216 222 222 224 226 219 226 220 225 224 226 226 224 223 223 221 223 225 224 222 227 230 232 231 229 230 231 230 228 225 225 226
222 216 225 231 233 238 237 231 226 220 222 225 214 228 226 219 219 219 218 223 225 226 225 228 223 223 224 226 224 221 225 230 234 234 234 233 233 232 231 227 229 230
218 223 225 230 230 234 231 226 224 224 219 228 218 221 228 226 223 227 228 226 233 229 229 229 230 230 231 230 229 227 226 229 233 235 237 236 234 233 231 232 232 232
225 222 223 230 232 231 230 229 229 225 226 230 213 222 227 229 229 228 233 224 232 231 233 231 231 235 233 231 229 227 227 231 231 235 236 237 236 233 230 231 231 231
230 228 227 231 231 233 234 234 231 231 231 225 222 233 234 235 236 233 235 235 233 231 234 228 230 234 231 229 229 230 228 231 230 233 234 238 238 237 235 234 234 234
229 228 225 223 229 230 233 234 233 230 227 228 230 232 236 234 235 233 230 235 236 234 233 230 234 234 232 230 228 231 232 233 233 234 234 236 239 242 241 237 238 237
213 224 215 221 227 235 239 236 240 233 234 239 240 238 238 237 231 236 234 231 233 237 235 234 234 234 231 232 236 234 234 239 239 242 236 238 238 239 244 242 243 241
217 213 216 239 240 248 250 253 256 250 247 246 249 247 245 239 239 239 243 238 237 239 241 241 241 236 233 237 238 239 235 237 240 244 242 241 241 241 243 243 244 243
219 217 251 279 271 271 273 270 250 251 249 247 245 243 246 239 241 242 242 239 235 240 244 243 248 240 236 238 240 239 239 236 241 239 243 244 243 243 245 244 243 244
357 347 309 293 296 289 278 261 251 248 248 248 258 253 239 249 250 246 249 244 238 240 248 252 252 246 240 243 245 243 242 239 242 242 243 245 244 244 245 245 243 246
1 334 295 298 295 287 272 258 253 263 258 250 244 248 242 245 249 252 250 247 246 243 250 256 256 250 244 245 247 248 247 244 246 245 247 248 246 244 244 244 244 242
340 304 292 294 295 294 277 272 264 257 265 257 246 250 247 251 258 247 256 253 247 243 246 258 259 252 249 246 247 248 248 247 246 246 248 250 249 246 244 243 242 241
302 285 295 295 292 292 280 274 276 277 268 239 256 260 261 254 250 248 247 251 253 245 246 257 264 255 247 246 247 248 249 247 245 248 248 250 252 249 246 243 240 238
314 293 284 286 291 284 283 283 272 272 275 249 255 276 273 262 261 265 257 249 252 252 241 258 265 256 246 247 246 246 242 246 246 248 252 251 258 252 247 247 241 236
288 281 273 288 297 292 295 299 300 294 287 281 262 262 267 277 274 270 271 260 250 255 254 253 267 268 255 256 251 249 246 247 248 251 256 255 258 261 248 249 247 237
290 295 295 296 298 301 302 290 298 307 297 287 277 262 271 269 269 266 271 271 262 259 260 251 264 269 249 248 253 253 249 248 248 253 258 262 258 259 263 251 243 243